[Date Prev][Date Next][Thread Prev][Thread Next] - [Date Index][Thread Index][Author Index]
2 Line ISS Keps 3-17
- Subject: [sarex] 2 Line ISS Keps 3-17
- From: "Dave Larsen PhD" <doc@xxxxxxxxxxx>
- Date: Wed, 17 Mar 2004 01:37:08 -0800
ISS
1 25544U 98067A 04077.02565009 .00018158 00000-0 17257-3 0 3863
2 25544 51.6289 75.1961 0010651 285.8822 190.4576 15.66872583303852
----
Via the sarex mailing list at AMSAT.ORG courtesy of AMSAT-NA.
To unsubscribe, send "unsubscribe sarex" to Majordomo@amsat.org
AMSAT Home